Time,TemperatureF,DewpointF,PressureIn,WindDirection,WindDirectionDegrees,WindSpeedMPH,WindSpeedGustMPH,Humidity,HourlyPrecipIn,Conditions,Clouds,dailyrainin,SoftwareType,DateUTC
2013-05-19 00:05:00,42.3,38.7,29.80,SE,126,0.0,2.0,87,0.00,,,0.10,Wunderground v.1.15,2013-05-19 06:05:00,
2013-05-19 00:10:00,42.2,38.6,29.80,SE,127,1.0,2.0,87,0.00,,,0.00,Wunderground v.1.15,2013-05-19 06:10:00,
2013-05-19 00:15:00,42.1,38.5,29.80,SE,124,1.0,3.0,87,0.00,,,0.00,Wunderground v.1.15,2013-05-19 06:15:00,
2013-05-19 00:20:00,42.0,38.4,29.80,ESE,121,2.0,3.0,87,0.00,,,0.00,Wunderground v.1.15,2013-05-19 06:20:00,
2013-05-19 00:25:00,41.9,38.3,29.80,ESE,120,1.0,1.0,87,0.00,,,0.00,Wunderground v.1.15,2013-05-19 06:25:00,
2013-05-19 00:30:00,41.9,38.3,29.80,ESE,121,1.0,4.0,87,0.00,,,0.00,Wunderground v.1.15,2013-05-19 06:30:00,
2013-05-19 00:35:00,41.9,38.3,29.81,ESE,119,1.0,1.0,87,0.00,,,0.00,Wunderground v.1.15,2013-05-19 06:35:00,
2013-05-19 00:40:00,42.0,38.4,29.80,ESE,120,1.0,1.0,87,0.00,,,0.00,Wunderground v.1.15,2013-05-19 06:40:00,
2013-05-19 00:45:00,42.0,38.1,29.80,ESE,120,1.0,3.0,86,0.00,,,0.00,Wunderground v.1.15,2013-05-19 06:45:00,
2013-05-19 00:50:00,42.1,38.2,29.80,ESE,119,1.0,3.0,86,0.00,,,0.00,Wunderground v.1.15,2013-05-19 06:50:00,
2013-05-19 01:00:00,42.0,38.4,29.80,ESE,120,0.0,0.0,87,0.00,,,0.00,Wunderground v.1.15,2013-05-19 07:00:00,
2013-05-19 01:05:00,42.0,38.4,29.80,ESE,120,0.0,3.0,87,0.00,,,0.00,Wunderground v.1.15,2013-05-19 07:05:00,
2013-05-19 01:10:00,41.9,38.0,29.80,ESE,120,0.0,0.0,86,0.00,,,0.00,Wunderground v.1.15,2013-05-19 07:10:00,
2013-05-19 01:15:00,41.9,38.0,29.80,ESE,119,0.0,1.0,86,0.00,,,0.00,Wunderground v.1.15,2013-05-19 07:15:00,
2013-05-19 01:20:00,42.0,38.1,29.81,ESE,120,1.0,2.0,86,0.00,,,0.00,Wunderground v.1.15,2013-05-19 07:20:00,
2013-05-19 01:25:00,42.0,38.1,29.80,ESE,120,2.0,2.0,86,0.00,,,0.00,Wunderground v.1.15,2013-05-19 07:25:00,
2013-05-19 01:30:00,41.9,38.0,29.80,ESE,119,1.0,3.0,86,0.00,,,0.00,Wunderground v.1.15,2013-05-19 07:30:00,
2013-05-19 01:35:00,41.9,38.0,29.80,ESE,120,1.0,3.0,86,0.00,,,0.00,Wunderground v.1.15,2013-05-19 07:35:00,
2013-05-19 01:40:00,41.9,38.0,29.81,ESE,120,1.0,1.0,86,0.00,,,0.00,Wunderground v.1.15,2013-05-19 07:40:00,
2013-05-19 01:45:00,41.8,37.9,29.80,ESE,119,1.0,1.0,86,0.00,,,0.00,Wunderground v.1.15,2013-05-19 07:45:00,
2013-05-19 01:50:00,41.6,37.7,29.80,ESE,120,0.0,0.0,86,0.00,,,0.00,Wunderground v.1.15,2013-05-19 07:50:00,
2013-05-19 01:55:00,41.6,38.0,29.80,ESE,120,0.0,0.0,87,0.00,,,0.00,Wunderground v.1.15,2013-05-19 07:55:00,
2013-05-19 02:00:00,41.6,38.0,29.80,ESE,120,0.0,0.0,87,0.00,,,0.00,Wunderground v.1.15,2013-05-19 08:00:00,
2013-05-19 02:05:00,41.6,38.0,29.80,ESE,120,0.0,1.0,87,0.00,,,0.00,Wunderground v.1.15,2013-05-19 08:05:00,
2013-05-19 02:10:00,41.5,37.9,29.81,ESE,120,0.0,0.0,87,0.00,,,0.00,Wunderground v.1.15,2013-05-19 08:10:00,
2013-05-19 02:20:00,41.2,37.6,29.80,ESE,120,0.0,0.0,87,0.00,,,0.00,Wunderground v.1.15,2013-05-19 08:20:00,
2013-05-19 02:25:00,41.0,37.4,29.80,ESE,119,0.0,3.0,87,0.00,,,0.00,Wunderground v.1.15,2013-05-19 08:25:00,
2013-05-19 02:30:00,40.9,37.3,29.80,ESE,120,0.0,1.0,87,0.00,,,0.00,Wunderground v.1.15,2013-05-19 08:30:00,
2013-05-19 02:35:00,40.8,37.2,29.80,ESE,120,1.0,1.0,87,0.00,,,0.00,Wunderground v.1.15,2013-05-19 08:35:00,
2013-05-19 02:40:00,40.9,37.3,29.80,ESE,119,1.0,1.0,87,0.00,,,0.00,Wunderground v.1.15,2013-05-19 08:40:00,
2013-05-19 02:45:00,40.7,36.8,29.80,ESE,119,0.0,1.0,86,0.00,,,0.00,Wunderground v.1.15,2013-05-19 08:45:00,
2013-05-19 02:50:00,40.6,37.0,29.80,ESE,119,1.0,1.0,87,0.00,,,0.00,Wunderground v.1.15,2013-05-19 08:50:00,
2013-05-19 03:05:00,40.7,37.1,29.80,ESE,118,1.0,6.0,87,0.00,,,0.00,Wunderground v.1.15,2013-05-19 09:05:00,
2013-05-19 03:10:00,40.7,36.8,29.80,ESE,118,1.0,6.0,86,0.00,,,0.00,Wunderground v.1.15,2013-05-19 09:10:00,
2013-05-19 03:15:00,40.7,36.8,29.80,ESE,118,1.0,1.0,86,0.00,,,0.00,Wunderground v.1.15,2013-05-19 09:15:00,
2013-05-19 03:20:00,40.7,36.8,29.80,ESE,118,1.0,2.0,86,0.00,,,0.00,Wunderground v.1.15,2013-05-19 09:20:00,
2013-05-19 03:25:00,40.6,36.7,29.80,ESE,118,1.0,1.0,86,0.00,,,0.00,Wunderground v.1.15,2013-05-19 09:25:00,
2013-05-19 03:30:00,40.5,36.6,29.80,ESE,118,1.0,1.0,86,0.00,,,0.00,Wunderground v.1.15,2013-05-19 09:30:00,
2013-05-19 03:35:00,40.4,36.5,29.80,ESE,118,1.0,1.0,86,0.00,,,0.00,Wunderground v.1.15,2013-05-19 09:35:00,
2013-05-19 03:40:00,40.3,36.4,29.80,ESE,118,0.0,3.0,86,0.00,,,0.00,Wunderground v.1.15,2013-05-19 09:40:00,
2013-05-19 03:45:00,40.2,36.3,29.80,ESE,118,1.0,1.0,86,0.00,,,0.00,Wunderground v.1.15,2013-05-19 09:45:00,
2013-05-19 03:50:00,40.1,36.5,29.80,ESE,118,1.0,1.0,87,0.00,,,0.00,Wunderground v.1.15,2013-05-19 09:50:00,
2013-05-19 03:55:00,39.8,36.0,29.80,ESE,118,0.0,0.0,86,0.00,,,0.00,Wunderground v.1.15,2013-05-19 09:55:00,
2013-05-19 04:00:00,39.6,35.8,29.80,ESE,118,0.0,0.0,86,0.00,,,0.00,Wunderground v.1.15,2013-05-19 10:00:00,
2013-05-19 04:05:00,39.3,35.5,29.80,ESE,118,0.0,6.0,86,0.00,,,0.00,Wunderground v.1.15,2013-05-19 10:05:00,
2013-05-19 04:10:00,38.9,35.4,29.80,ESE,118,0.0,0.0,87,0.00,,,0.00,Wunderground v.1.15,2013-05-19 10:10:00,
2013-05-19 04:15:00,38.5,35.0,29.80,ESE,118,0.0,0.0,87,0.00,,,0.00,Wunderground v.1.15,2013-05-19 10:15:00,
2013-05-19 04:20:00,38.1,34.9,29.81,ESE,118,0.0,0.0,88,0.00,,,0.00,Wunderground v.1.15,2013-05-19 10:20:00,
2013-05-19 04:30:00,37.6,34.7,29.81,ESE,118,0.0,0.0,89,0.00,,,0.00,Wunderground v.1.15,2013-05-19 10:30:00,
2013-05-19 04:35:00,37.4,34.7,29.81,ESE,118,0.0,0.0,90,0.00,,,0.00,Wunderground v.1.15,2013-05-19 10:35:00,
2013-05-19 04:40:00,37.3,34.9,29.81,ESE,118,0.0,0.0,91,0.00,,,0.00,Wunderground v.1.15,2013-05-19 10:40:00,
2013-05-19 04:45:00,37.3,34.9,29.81,ESE,118,0.0,1.0,91,0.00,,,0.00,Wunderground v.1.15,2013-05-19 10:45:00,
2013-05-19 04:50:00,37.3,35.2,29.81,ESE,118,0.0,0.0,92,0.00,,,0.00,Wunderground v.1.15,2013-05-19 10:50:00,
2013-05-19 04:55:00,37.4,35.3,29.81,ESE,118,0.0,0.0,92,0.00,,,0.00,Wunderground v.1.15,2013-05-19 10:55:00,
2013-05-19 05:05:00,37.8,35.7,29.81,ESE,118,0.0,4.0,92,0.00,,,0.00,Wunderground v.1.15,2013-05-19 11:05:00,
2013-05-19 05:10:00,38.1,36.0,29.81,ESE,118,1.0,4.0,92,0.00,,,0.00,Wunderground v.1.15,2013-05-19 11:10:00,
2013-05-19 05:15:00,38.2,35.8,29.81,ESE,118,1.0,1.0,91,0.00,,,0.00,Wunderground v.1.15,2013-05-19 11:15:00,
2013-05-19 05:20:00,38.3,35.9,29.81,ESE,118,0.0,1.0,91,0.00,,,0.00,Wunderground v.1.15,2013-05-19 11:20:00,
2013-05-19 05:25:00,38.4,36.0,29.81,ESE,118,0.0,0.0,91,0.00,,,0.00,Wunderground v.1.15,2013-05-19 11:25:00,
2013-05-19 05:30:00,38.4,36.0,29.81,ESE,118,0.0,0.0,91,0.00,,,0.00,Wunderground v.1.15,2013-05-19 11:30:00,
2013-05-19 05:35:00,38.5,36.1,29.81,ESE,118,0.0,0.0,91,0.00,,,0.00,Wunderground v.1.15,2013-05-19 11:35:00,
2013-05-19 05:40:00,38.5,36.1,29.81,ESE,118,0.0,0.0,91,0.00,,,0.00,Wunderground v.1.15,2013-05-19 11:40:00,
2013-05-19 05:45:00,38.6,36.2,29.81,ESE,118,0.0,0.0,91,0.00,,,0.00,Wunderground v.1.15,2013-05-19 11:45:00,
2013-05-19 05:50:00,38.5,35.8,29.81,ESE,118,0.0,0.0,90,0.00,,,0.00,Wunderground v.1.15,2013-05-19 11:50:00,
2013-05-19 05:55:00,38.3,35.6,29.81,ESE,118,0.0,0.0,90,0.00,,,0.00,Wunderground v.1.15,2013-05-19 11:55:00,
2013-05-19 06:05:00,37.9,35.2,29.82,ESE,118,0.0,3.0,90,0.00,,,0.00,Wunderground v.1.15,2013-05-19 12:05:00,
2013-05-19 06:10:00,37.8,35.1,29.82,ESE,118,0.0,3.0,90,0.00,,,0.00,Wunderground v.1.15,2013-05-19 12:10:00,
2013-05-19 06:15:00,37.7,35.3,29.82,ESE,118,0.0,0.0,91,0.00,,,0.00,Wunderground v.1.15,2013-05-19 12:15:00,
2013-05-19 06:20:00,37.7,35.3,29.82,ESE,118,0.0,0.0,91,0.00,,,0.00,Wunderground v.1.15,2013-05-19 12:20:00,
2013-05-19 06:25:00,37.7,35.3,29.82,ESE,118,0.0,0.0,91,0.00,,,0.00,Wunderground v.1.15,2013-05-19 12:25:00,
2013-05-19 06:30:00,37.7,35.6,29.82,ESE,118,0.0,0.0,92,0.00,,,0.00,Wunderground v.1.15,2013-05-19 12:30:00,
2013-05-19 06:35:00,37.7,35.6,29.82,ESE,118,0.0,0.0,92,0.00,,,0.00,Wunderground v.1.15,2013-05-19 12:35:00,
2013-05-19 06:40:00,37.8,35.7,29.82,ESE,118,0.0,0.0,92,0.00,,,0.00,Wunderground v.1.15,2013-05-19 12:40:00,
2013-05-19 06:50:00,38.0,35.9,29.82,ESE,118,0.0,0.0,92,0.00,,,0.00,Wunderground v.1.15,2013-05-19 12:50:00,
2013-05-19 06:55:00,38.2,36.1,29.82,ESE,118,0.0,0.0,92,0.00,,,0.00,Wunderground v.1.15,2013-05-19 12:55:00,
2013-05-19 07:00:00,38.5,36.7,29.82,ESE,118,0.0,0.0,93,0.00,,,0.00,Wunderground v.1.15,2013-05-19 13:00:00,
2013-05-19 07:05:00,38.7,36.9,29.82,ESE,118,0.0,2.0,93,0.00,,,0.00,Wunderground v.1.15,2013-05-19 13:05:00,
2013-05-19 07:10:00,39.1,37.2,29.82,ESE,118,0.0,0.0,93,0.00,,,0.00,Wunderground v.1.15,2013-05-19 13:10:00,
2013-05-19 07:15:00,39.4,37.3,29.82,ESE,118,0.0,0.0,92,0.00,,,0.00,Wunderground v.1.15,2013-05-19 13:15:00,
2013-05-19 07:20:00,39.8,37.7,29.82,ESE,118,0.0,0.0,92,0.00,,,0.00,Wunderground v.1.15,2013-05-19 13:20:00,
2013-05-19 07:25:00,40.1,37.7,29.83,ESE,118,0.0,0.0,91,0.00,,,0.00,Wunderground v.1.15,2013-05-19 13:25:00,
2013-05-19 07:30:00,40.5,37.8,29.83,ESE,118,0.0,0.0,90,0.00,,,0.00,Wunderground v.1.15,2013-05-19 13:30:00,
2013-05-19 07:35:00,40.9,37.9,29.83,ESE,118,0.0,0.0,89,0.00,,,0.00,Wunderground v.1.15,2013-05-19 13:35:00,
2013-05-19 07:40:00,41.1,37.8,29.83,ESE,118,0.0,0.0,88,0.00,,,0.00,Wunderground v.1.15,2013-05-19 13:40:00,
2013-05-19 07:45:00,41.1,37.5,29.83,ESE,118,0.0,0.0,87,0.00,,,0.00,Wunderground v.1.15,2013-05-19 13:45:00,
2013-05-19 07:50:00,41.1,37.8,29.83,ESE,118,0.0,0.0,88,0.00,,,0.00,Wunderground v.1.15,2013-05-19 13:50:00,
2013-05-19 07:55:00,41.2,37.9,29.83,ESE,118,0.0,0.0,88,0.00,,,0.00,Wunderground v.1.15,2013-05-19 13:55:00,
2013-05-19 08:05:00,41.5,38.2,29.83,ESE,118,0.0,1.0,88,0.00,,,0.00,Wunderground v.1.15,2013-05-19 14:05:00,
2013-05-19 08:10:00,42.2,39.5,29.83,ESE,118,0.0,1.0,90,0.00,,,0.00,Wunderground v.1.15,2013-05-19 14:10:00,
2013-05-19 08:15:00,42.7,40.0,29.83,ESE,118,0.0,1.0,90,0.00,,,0.00,Wunderground v.1.15,2013-05-19 14:15:00,
2013-05-19 08:20:00,43.2,39.3,29.83,ESE,118,0.0,1.0,86,0.00,,,0.00,Wunderground v.1.15,2013-05-19 14:20:00,
2013-05-19 08:25:00,43.4,39.2,29.83,ESE,118,0.0,0.0,85,0.00,,,0.00,Wunderground v.1.15,2013-05-19 14:25:00,
2013-05-19 08:30:00,43.5,39.0,29.83,ESE,118,0.0,0.0,84,0.00,,,0.00,Wunderground v.1.15,2013-05-19 14:30:00,
2013-05-19 08:35:00,43.5,38.7,29.83,ESE,118,0.0,0.0,83,0.00,,,0.00,Wunderground v.1.15,2013-05-19 14:35:00,
2013-05-19 08:40:00,43.6,39.1,29.83,ESE,118,0.0,0.0,84,0.00,,,0.00,Wunderground v.1.15,2013-05-19 14:40:00,
2013-05-19 08:45:00,43.8,39.0,29.83,ESE,118,0.0,0.0,83,0.00,,,0.00,Wunderground v.1.15,2013-05-19 14:45:00,
2013-05-19 08:50:00,44.4,40.8,29.83,ESE,118,0.0,1.0,87,0.00,,,0.00,Wunderground v.1.15,2013-05-19 14:50:00,
2013-05-19 08:55:00,45.2,41.6,29.83,ESE,117,1.0,1.0,87,0.00,,,0.00,Wunderground v.1.15,2013-05-19 14:55:00,
2013-05-19 09:00:00,46.0,41.1,29.83,ESE,118,1.0,2.0,83,0.00,,,0.00,Wunderground v.1.15,2013-05-19 15:00:00,
2013-05-19 09:05:00,46.8,42.5,29.83,ESE,118,1.0,4.0,85,0.00,,,0.00,Wunderground v.1.15,2013-05-19 15:05:00,
2013-05-19 09:10:00,48.0,42.4,29.83,ESE,118,0.0,0.0,81,0.00,,,0.00,Wunderground v.1.15,2013-05-19 15:10:00,
2013-05-19 09:15:00,48.5,41.3,29.83,ESE,118,1.0,1.0,76,0.00,,,0.00,Wunderground v.1.15,2013-05-19 15:15:00,
2013-05-19 09:20:00,48.8,40.9,29.83,ESE,118,1.0,1.0,74,0.00,,,0.00,Wunderground v.1.15,2013-05-19 15:20:00,
2013-05-19 09:25:00,48.9,39.9,29.83,ESE,118,0.0,1.0,71,0.00,,,0.00,Wunderground v.1.15,2013-05-19 15:25:00,
2013-05-19 09:30:00,48.2,38.1,29.83,South,173,1.0,1.0,68,0.00,,,0.00,Wunderground v.1.15,2013-05-19 15:30:00,
2013-05-19 09:35:00,47.8,39.9,29.83,South,173,1.0,1.0,74,0.00,,,0.01,Wunderground v.1.15,2013-05-19 15:35:00,
2013-05-19 09:40:00,47.1,38.9,29.83,South,173,0.0,0.0,73,0.29,,,0.03,Wunderground v.1.15,2013-05-19 15:40:00,
2013-05-19 09:45:00,46.1,37.9,29.83,South,172,0.0,0.0,73,0.10,,,0.03,Wunderground v.1.15,2013-05-19 15:45:00,
2013-05-19 09:50:00,45.2,39.4,29.83,South,173,1.0,1.0,80,0.05,,,0.03,Wunderground v.1.15,2013-05-19 15:50:00,
2013-05-19 09:55:00,44.9,40.4,29.83,South,173,0.0,1.0,84,0.04,,,0.03,Wunderground v.1.15,2013-05-19 15:55:00,
2013-05-19 10:00:00,44.7,39.9,29.83,South,173,0.0,0.0,83,0.04,,,0.04,Wunderground v.1.15,2013-05-19 16:00:00,
2013-05-19 10:05:00,44.9,40.4,29.83,South,173,0.0,1.0,84,0.04,,,0.04,Wunderground v.1.15,2013-05-19 16:05:00,
2013-05-19 10:10:00,46.0,40.5,29.83,South,173,1.0,2.0,81,0.04,,,0.04,Wunderground v.1.15,2013-05-19 16:10:00,
2013-05-19 10:15:00,47.3,42.4,29.83,South,173,1.0,2.0,83,0.00,,,0.04,Wunderground v.1.15,2013-05-19 16:15:00,
2013-05-19 10:20:00,48.4,41.2,29.83,SSW,196,1.0,1.0,76,0.00,,,0.04,Wunderground v.1.15,2013-05-19 16:20:00,
2013-05-19 10:25:00,48.4,39.1,29.83,SW,236,2.0,2.0,70,0.00,,,0.04,Wunderground v.1.15,2013-05-19 16:25:00,
2013-05-19 10:30:00,47.8,38.5,29.83,SW,236,1.0,1.0,70,0.00,,,0.04,Wunderground v.1.15,2013-05-19 16:30:00,
2013-05-19 10:35:00,47.4,39.2,29.83,SW,236,0.0,1.0,73,0.00,,,0.04,Wunderground v.1.15,2013-05-19 16:35:00,
2013-05-19 10:40:00,47.4,40.9,29.83,SW,236,0.0,0.0,78,0.00,,,0.04,Wunderground v.1.15,2013-05-19 16:40:00,
2013-05-19 10:45:00,47.6,41.1,29.84,SW,236,0.0,0.0,78,0.00,,,0.04,Wunderground v.1.15,2013-05-19 16:45:00,
2013-05-19 10:50:00,47.5,39.3,29.84,South,172,1.0,3.0,73,0.00,,,0.04,Wunderground v.1.15,2013-05-19 16:50:00,
2013-05-19 10:55:00,46.6,38.1,29.84,South,175,2.0,3.0,72,0.00,,,0.04,Wunderground v.1.15,2013-05-19 16:55:00,
2013-05-19 11:00:00,45.6,37.4,29.84,SSW,210,2.0,2.0,73,0.00,,,0.04,Wunderground v.1.15,2013-05-19 17:00:00,
2013-05-19 11:05:00,45.1,37.0,29.84,SSW,209,1.0,9.0,73,0.00,,,0.04,Wunderground v.1.15,2013-05-19 17:05:00,
2013-05-19 11:10:00,45.0,37.9,29.85,South,182,1.0,1.0,76,0.00,,,0.04,Wunderground v.1.15,2013-05-19 17:10:00,
2013-05-19 11:20:00,45.0,37.9,29.85,South,171,0.0,5.0,76,0.00,,,0.04,Wunderground v.1.15,2013-05-19 17:20:00,
2013-05-19 11:25:00,45.0,36.5,29.84,SSE,158,1.0,5.0,72,0.00,,,0.04,Wunderground v.1.15,2013-05-19 17:25:00,
2013-05-19 11:30:00,45.2,37.7,29.84,SSE,158,1.0,1.0,75,0.00,,,0.04,Wunderground v.1.15,2013-05-19 17:30:00,
2013-05-19 11:35:00,45.8,38.7,29.84,SSE,158,0.0,1.0,76,0.00,,,0.04,Wunderground v.1.15,2013-05-19 17:35:00,
2013-05-19 11:40:00,46.4,37.5,29.84,SE,128,1.0,1.0,71,0.00,,,0.04,Wunderground v.1.15,2013-05-19 17:40:00,
2013-05-19 11:45:00,46.6,37.3,29.84,SE,126,1.0,1.0,70,0.00,,,0.04,Wunderground v.1.15,2013-05-19 17:45:00,
2013-05-19 11:50:00,46.9,36.1,29.84,SE,127,1.0,1.0,66,0.00,,,0.04,Wunderground v.1.15,2013-05-19 17:50:00,
2013-05-19 12:05:00,48.3,37.1,29.84,ESE,105,2.0,7.0,65,0.00,,,0.04,Wunderground v.1.15,2013-05-19 18:05:00,
2013-05-19 12:10:00,48.3,36.3,29.84,ESE,115,3.0,7.0,63,0.00,,,0.04,Wunderground v.1.15,2013-05-19 18:10:00,
2013-05-19 12:15:00,48.5,38.0,29.84,ESE,121,3.0,3.0,67,0.00,,,0.04,Wunderground v.1.15,2013-05-19 18:15:00,
2013-05-19 12:20:00,49.6,38.7,29.84,SE,146,3.0,3.0,66,0.00,,,0.04,Wunderground v.1.15,2013-05-19 18:20:00,
2013-05-19 12:25:00,50.0,39.1,29.84,SE,138,3.0,3.0,66,0.00,,,0.04,Wunderground v.1.15,2013-05-19 18:25:00,
2013-05-19 12:30:00,51.0,40.4,29.83,SE,146,3.0,3.0,67,0.00,,,0.04,Wunderground v.1.15,2013-05-19 18:30:00,
2013-05-19 12:35:00,52.3,40.5,29.83,SSE,153,3.0,3.0,64,0.00,,,0.04,Wunderground v.1.15,2013-05-19 18:35:00,
2013-05-19 12:40:00,53.5,39.5,29.83,SSE,165,4.0,4.0,59,0.00,,,0.04,Wunderground v.1.15,2013-05-19 18:40:00,
2013-05-19 12:50:00,54.2,36.9,29.83,South,169,3.0,4.0,52,0.00,,,0.04,Wunderground v.1.15,2013-05-19 18:50:00,
2013-05-19 12:55:00,53.4,34.2,29.83,South,170,2.0,2.0,48,0.00,,,0.04,Wunderground v.1.15,2013-05-19 18:55:00,
2013-05-19 13:05:00,52.4,35.3,29.83,South,171,1.0,1.0,52,0.00,,,0.04,Wunderground v.1.15,2013-05-19 19:05:00,
2013-05-19 13:10:00,51.4,36.2,29.84,South,188,2.0,3.0,56,0.00,,,0.04,Wunderground v.1.15,2013-05-19 19:10:00,
2013-05-19 13:20:00,50.6,37.2,29.83,South,179,2.0,3.0,60,0.00,,,0.04,Wunderground v.1.15,2013-05-19 19:20:00,
2013-05-19 13:25:00,50.8,37.8,29.83,South,179,1.0,1.0,61,0.00,,,0.04,Wunderground v.1.15,2013-05-19 19:25:00,
2013-05-19 13:30:00,51.5,37.2,29.83,South,179,1.0,1.0,58,0.00,,,0.04,Wunderground v.1.15,2013-05-19 19:30:00,
2013-05-19 13:40:00,52.8,35.2,29.84,South,182,1.0,1.0,51,0.00,,,0.04,Wunderground v.1.15,2013-05-19 19:40:00,
2013-05-19 13:50:00,50.8,36.1,29.84,NNW,348,5.0,6.0,57,0.00,,,0.04,Wunderground v.1.15,2013-05-19 19:50:00,
2013-05-19 13:55:00,49.5,34.9,29.84,North,360,7.0,7.0,57,0.00,,,0.04,Wunderground v.1.15,2013-05-19 19:55:00,
2013-05-19 14:00:00,48.5,34.8,29.84,NNW,347,5.0,5.0,59,0.00,,,0.04,Wunderground v.1.15,2013-05-19 20:00:00,
2013-05-19 14:05:00,48.5,34.8,29.85,North,360,5.0,6.0,59,0.00,,,0.04,Wunderground v.1.15,2013-05-19 20:05:00,
2013-05-19 14:10:00,48.9,35.2,29.85,North,360,3.0,3.0,59,0.00,,,0.04,Wunderground v.1.15,2013-05-19 20:10:00,
2013-05-19 14:15:00,49.8,34.7,29.85,North,360,2.0,3.0,56,0.00,,,0.04,Wunderground v.1.15,2013-05-19 20:15:00,
2013-05-19 14:20:00,50.7,37.3,29.86,North,355,1.0,2.0,60,0.00,,,0.04,Wunderground v.1.15,2013-05-19 20:20:00,
2013-05-19 14:25:00,50.6,37.6,29.87,NNW,337,1.0,2.0,61,0.00,,,0.04,Wunderground v.1.15,2013-05-19 20:25:00,
2013-05-19 14:30:00,48.8,37.9,29.88,NW,317,2.0,2.0,66,0.48,,,0.07,Wunderground v.1.15,2013-05-19 20:30:00,
2013-05-19 14:35:00,46.8,37.2,29.88,NW,324,2.0,2.0,69,0.19,,,0.08,Wunderground v.1.15,2013-05-19 20:35:00,
2013-05-19 14:40:00,45.3,37.2,29.89,NW,324,1.0,1.0,73,0.08,,,0.08,Wunderground v.1.15,2013-05-19 20:40:00,
2013-05-19 14:45:00,44.5,37.1,29.88,WNW,303,1.0,1.0,75,0.05,,,0.08,Wunderground v.1.15,2013-05-19 20:45:00,
2013-05-19 14:50:00,44.0,38.2,29.89,WNW,294,1.0,1.0,80,0.00,,,0.08,Wunderground v.1.15,2013-05-19 20:50:00,
2013-05-19 14:55:00,43.5,38.1,29.89,WNW,294,1.0,1.0,81,0.00,,,0.09,Wunderground v.1.15,2013-05-19 20:55:00,
2013-05-19 15:00:00,43.1,37.3,29.89,WNW,294,1.0,1.0,80,0.00,,,0.09,Wunderground v.1.15,2013-05-19 21:00:00,
2013-05-19 15:05:00,43.0,37.6,29.88,WNW,294,1.0,16.0,81,0.00,,,0.09,Wunderground v.1.15,2013-05-19 21:05:00,
2013-05-19 15:10:00,43.1,38.9,29.88,WNW,292,1.0,3.0,85,0.00,,,0.09,Wunderground v.1.15,2013-05-19 21:10:00,
2013-05-19 15:15:00,43.1,38.9,29.88,WNW,292,1.0,3.0,85,0.00,,,0.09,Wunderground v.1.15,2013-05-19 21:15:00,
2013-05-19 15:20:00,43.3,39.1,29.89,WNW,292,1.0,1.0,85,0.00,,,0.09,Wunderground v.1.15,2013-05-19 21:20:00,
2013-05-19 15:25:00,43.6,39.1,29.89,WNW,291,0.0,1.0,84,0.00,,,0.09,Wunderground v.1.15,2013-05-19 21:25:00,
2013-05-19 15:30:00,44.1,40.5,29.89,WNW,292,1.0,1.0,87,0.00,,,0.09,Wunderground v.1.15,2013-05-19 21:30:00,
2013-05-19 15:35:00,44.7,40.5,29.89,WSW,257,1.0,2.0,85,0.00,,,0.09,Wunderground v.1.15,2013-05-19 21:35:00,
2013-05-19 15:40:00,45.4,40.5,29.89,SSE,161,2.0,2.0,83,0.00,,,0.09,Wunderground v.1.15,2013-05-19 21:40:00,
2013-05-19 15:45:00,46.0,39.9,29.88,SE,138,2.0,2.0,79,0.00,,,0.09,Wunderground v.1.15,2013-05-19 21:45:00,
2013-05-19 15:50:00,46.8,41.3,29.88,SE,142,2.0,2.0,81,0.00,,,0.09,Wunderground v.1.15,2013-05-19 21:50:00,
2013-05-19 15:55:00,47.3,40.5,29.88,SE,142,2.0,2.0,77,0.00,,,0.09,Wunderground v.1.15,2013-05-19 21:55:00,
2013-05-19 16:05:00,47.6,39.0,29.88,SSE,148,2.0,7.0,72,0.00,,,0.09,Wunderground v.1.15,2013-05-19 22:05:00,
2013-05-19 16:10:00,47.8,39.2,29.88,SSE,148,2.0,7.0,72,0.00,,,0.09,Wunderground v.1.15,2013-05-19 22:10:00,
2013-05-19 16:15:00,48.1,39.1,29.88,SE,146,2.0,3.0,71,0.00,,,0.09,Wunderground v.1.15,2013-05-19 22:15:00,
2013-05-19 16:20:00,48.3,37.5,29.88,SE,129,2.0,3.0,66,0.00,,,0.09,Wunderground v.1.15,2013-05-19 22:20:00,
2013-05-19 16:30:00,49.3,38.8,29.88,SSE,165,2.0,6.0,67,0.00,,,0.09,Wunderground v.1.15,2013-05-19 22:30:00,
2013-05-19 16:35:00,50.4,39.1,29.88,SSE,163,3.0,4.0,65,0.00,,,0.09,Wunderground v.1.15,2013-05-19 22:35:00,
2013-05-19 16:40:00,51.0,38.8,29.87,SSE,156,3.0,4.0,63,0.00,,,0.09,Wunderground v.1.15,2013-05-19 22:40:00,
2013-05-19 16:45:00,51.1,39.3,29.87,SE,125,3.0,4.0,64,0.00,,,0.09,Wunderground v.1.15,2013-05-19 22:45:00,
2013-05-19 16:50:00,51.0,36.7,29.87,ESE,106,4.0,11.0,58,0.00,,,0.09,Wunderground v.1.15,2013-05-19 22:50:00,
2013-05-19 16:55:00,50.9,37.1,29.87,SE,141,4.0,4.0,59,0.00,,,0.09,Wunderground v.1.15,2013-05-19 22:55:00,
2013-05-19 17:00:00,51.0,38.4,29.87,ESE,122,4.0,6.0,62,0.00,,,0.09,Wunderground v.1.15,2013-05-19 23:00:00,
2013-05-19 17:10:00,51.2,37.8,29.87,SE,144,3.0,3.0,60,0.00,,,0.09,Wunderground v.1.15,2013-05-19 23:10:00,
2013-05-19 17:15:00,51.4,39.2,29.87,SE,126,3.0,3.0,63,0.00,,,0.09,Wunderground v.1.15,2013-05-19 23:15:00,
2013-05-19 17:20:00,52.1,37.3,29.87,SSE,150,3.0,6.0,57,0.00,,,0.09,Wunderground v.1.15,2013-05-19 23:20:00,
2013-05-19 17:25:00,52.4,38.0,29.86,SSE,153,4.0,6.0,58,0.00,,,0.09,Wunderground v.1.15,2013-05-19 23:25:00,
2013-05-19 17:30:00,53.0,37.3,29.86,ESE,113,4.0,4.0,55,0.00,,,0.09,Wunderground v.1.15,2013-05-19 23:30:00,
2013-05-19 17:35:00,53.3,38.4,29.86,SE,136,3.0,4.0,57,0.00,,,0.09,Wunderground v.1.15,2013-05-19 23:35:00,
2013-05-19 17:40:00,53.5,37.7,29.86,SSE,166,3.0,4.0,55,0.00,,,0.09,Wunderground v.1.15,2013-05-19 23:40:00,
2013-05-19 17:45:00,53.5,37.3,29.86,SSE,155,4.0,4.0,54,0.00,,,0.09,Wunderground v.1.15,2013-05-19 23:45:00,
2013-05-19 17:50:00,53.6,36.4,29.85,ESE,122,4.0,4.0,52,0.00,,,0.09,Wunderground v.1.15,2013-05-19 23:50:00,
2013-05-19 17:55:00,53.6,36.9,29.85,SE,130,3.0,9.0,53,0.00,,,0.09,Wunderground v.1.15,2013-05-19 23:55:00,
2013-05-19 18:00:00,53.8,37.1,29.85,South,171,3.0,3.0,53,0.00,,,0.09,Wunderground v.1.15,2013-05-20 00:00:00,
2013-05-19 18:05:00,53.8,36.6,29.85,SSE,166,4.0,4.0,52,0.00,,,0.09,Wunderground v.1.15,2013-05-20 00:05:00,
2013-05-19 18:10:00,53.6,35.4,29.86,SE,144,4.0,4.0,50,0.00,,,0.09,Wunderground v.1.15,2013-05-20 00:10:00,
2013-05-19 18:15:00,53.7,35.5,29.85,SSE,163,3.0,4.0,50,0.00,,,0.09,Wunderground v.1.15,2013-05-20 00:15:00,
2013-05-19 18:20:00,53.9,36.2,29.85,SSE,165,3.0,4.0,51,0.00,,,0.09,Wunderground v.1.15,2013-05-20 00:20:00,
2013-05-19 18:25:00,54.0,36.3,29.85,SSE,161,3.0,4.0,51,0.00,,,0.09,Wunderground v.1.15,2013-05-20 00:25:00,
2013-05-19 18:30:00,54.0,35.8,29.85,SSE,159,3.0,3.0,50,0.00,,,0.09,Wunderground v.1.15,2013-05-20 00:30:00,
2013-05-19 18:35:00,53.8,35.6,29.85,SSE,159,2.0,3.0,50,0.00,,,0.09,Wunderground v.1.15,2013-05-20 00:35:00,
2013-05-19 18:40:00,53.5,36.3,29.85,SSE,159,1.0,1.0,52,0.00,,,0.09,Wunderground v.1.15,2013-05-20 00:40:00,
2013-05-19 18:45:00,53.1,35.4,29.85,SSE,159,1.0,1.0,51,0.00,,,0.09,Wunderground v.1.15,2013-05-20 00:45:00,
2013-05-19 18:50:00,52.7,36.0,29.85,SSE,159,1.0,2.0,53,0.00,,,0.09,Wunderground v.1.15,2013-05-20 00:50:00,
2013-05-19 18:55:00,52.5,35.4,29.85,SSE,159,1.0,2.0,52,0.00,,,0.09,Wunderground v.1.15,2013-05-20 00:55:00,
2013-05-19 19:05:00,52.0,34.9,29.85,SSE,159,1.0,1.0,52,0.00,,,0.09,Wunderground v.1.15,2013-05-20 01:05:00,
2013-05-19 19:10:00,51.6,34.5,29.85,SSE,159,0.0,1.0,52,0.00,,,0.09,Wunderground v.1.15,2013-05-20 01:10:00,
2013-05-19 19:15:00,51.3,34.7,29.86,SSE,159,0.0,0.0,53,0.00,,,0.09,Wunderground v.1.15,2013-05-20 01:15:00,
2013-05-19 19:20:00,51.0,34.5,29.86,SSE,159,0.0,0.0,53,0.00,,,0.09,Wunderground v.1.15,2013-05-20 01:20:00,
2013-05-19 19:25:00,50.7,34.6,29.86,SSE,159,0.0,0.0,54,0.00,,,0.09,Wunderground v.1.15,2013-05-20 01:25:00,
2013-05-19 19:30:00,50.4,35.3,29.86,SSE,159,0.0,0.0,56,0.00,,,0.09,Wunderground v.1.15,2013-05-20 01:30:00,
2013-05-19 19:35:00,50.1,35.9,29.86,SSE,159,0.0,0.0,58,0.00,,,0.09,Wunderground v.1.15,2013-05-20 01:35:00,
2013-05-19 19:40:00,50.0,34.5,29.86,SSE,159,0.0,0.0,55,0.00,,,0.09,Wunderground v.1.15,2013-05-20 01:40:00,
2013-05-19 19:50:00,50.2,34.6,29.86,SSE,158,0.0,0.0,55,0.00,,,0.09,Wunderground v.1.15,2013-05-20 01:50:00,
2013-05-19 19:55:00,50.3,34.7,29.86,SSE,157,1.0,1.0,55,0.00,,,0.09,Wunderground v.1.15,2013-05-20 01:55:00,
2013-05-19 20:05:00,50.0,35.4,29.87,SSE,157,0.0,7.0,57,0.00,,,0.09,Wunderground v.1.15,2013-05-20 02:05:00,
2013-05-19 20:10:00,49.5,36.2,29.86,SSE,158,0.0,7.0,60,0.00,,,0.09,Wunderground v.1.15,2013-05-20 02:10:00,
2013-05-19 20:15:00,49.1,35.4,29.87,SSE,158,0.0,0.0,59,0.00,,,0.09,Wunderground v.1.15,2013-05-20 02:15:00,
2013-05-19 20:20:00,48.5,35.2,29.87,SSE,157,0.0,0.0,60,0.00,,,0.09,Wunderground v.1.15,2013-05-20 02:20:00,
2013-05-19 20:25:00,48.0,35.6,29.87,SSE,158,0.0,0.0,62,0.00,,,0.09,Wunderground v.1.15,2013-05-20 02:25:00,
2013-05-19 20:30:00,47.6,36.0,29.87,SSE,158,0.0,0.0,64,0.00,,,0.09,Wunderground v.1.15,2013-05-20 02:30:00,
2013-05-19 20:40:00,46.8,34.5,29.88,SSE,158,0.0,0.0,62,0.00,,,0.09,Wunderground v.1.15,2013-05-20 02:40:00,
2013-05-19 20:45:00,46.7,34.4,29.88,SSE,158,0.0,0.0,62,0.00,,,0.09,Wunderground v.1.15,2013-05-20 02:45:00,
2013-05-19 20:50:00,46.6,34.7,29.88,SSE,157,0.0,0.0,63,0.00,,,0.09,Wunderground v.1.15,2013-05-20 02:50:00,
2013-05-19 20:55:00,46.6,35.1,29.88,SSE,157,0.0,0.0,64,0.00,,,0.09,Wunderground v.1.15,2013-05-20 02:55:00,
2013-05-19 21:00:00,46.5,35.4,29.88,SSE,158,0.0,0.0,65,0.00,,,0.09,Wunderground v.1.15,2013-05-20 03:00:00,
2013-05-19 21:10:00,46.2,34.7,29.88,SSE,158,0.0,1.0,64,0.00,,,0.09,Wunderground v.1.15,2013-05-20 03:10:00,
2013-05-19 21:15:00,46.0,34.9,29.88,SSE,158,0.0,1.0,65,0.00,,,0.09,Wunderground v.1.15,2013-05-20 03:15:00,
2013-05-19 21:20:00,46.0,34.9,29.89,SSE,158,1.0,1.0,65,0.00,,,0.09,Wunderground v.1.15,2013-05-20 03:20:00,
2013-05-19 21:25:00,46.0,34.9,29.89,SSE,158,0.0,1.0,65,0.00,,,0.09,Wunderground v.1.15,2013-05-20 03:25:00,
2013-05-19 21:30:00,46.0,34.9,29.89,SSE,157,0.0,0.0,65,0.00,,,0.09,Wunderground v.1.15,2013-05-20 03:30:00,
2013-05-19 21:35:00,46.0,34.5,29.89,SSE,158,0.0,1.0,64,0.00,,,0.09,Wunderground v.1.15,2013-05-20 03:35:00,
2013-05-19 21:40:00,45.8,34.3,29.89,SE,129,1.0,1.0,64,0.00,,,0.09,Wunderground v.1.15,2013-05-20 03:40:00,
2013-05-19 21:45:00,45.7,34.2,29.90,ESE,117,2.0,2.0,64,0.00,,,0.09,Wunderground v.1.15,2013-05-20 03:45:00,
2013-05-19 21:50:00,45.7,34.2,29.90,ESE,115,1.0,2.0,64,0.00,,,0.09,Wunderground v.1.15,2013-05-20 03:50:00,
2013-05-19 21:55:00,45.7,34.2,29.90,ESE,115,0.0,2.0,64,0.00,,,0.09,Wunderground v.1.15,2013-05-20 03:55:00,
2013-05-19 22:05:00,45.7,34.6,29.91,ESE,115,1.0,1.0,65,0.00,,,0.09,Wunderground v.1.15,2013-05-20 04:05:00,
2013-05-19 22:10:00,45.8,35.1,29.91,ESE,115,0.0,1.0,66,0.00,,,0.09,Wunderground v.1.15,2013-05-20 04:10:00,
2013-05-19 22:15:00,45.7,35.7,29.91,ESE,115,0.0,0.0,68,0.00,,,0.09,Wunderground v.1.15,2013-05-20 04:15:00,
2013-05-19 22:20:00,45.6,36.0,29.91,ESE,115,0.0,0.0,69,0.00,,,0.09,Wunderground v.1.15,2013-05-20 04:20:00,
2013-05-19 22:25:00,45.4,35.8,29.91,ESE,115,0.0,0.0,69,0.00,,,0.09,Wunderground v.1.15,2013-05-20 04:25:00,
2013-05-19 22:30:00,45.3,36.4,29.91,ESE,115,0.0,0.0,71,0.00,,,0.09,Wunderground v.1.15,2013-05-20 04:30:00,
2013-05-19 22:35:00,45.1,35.2,29.90,ESE,115,0.0,0.0,68,0.00,,,0.09,Wunderground v.1.15,2013-05-20 04:35:00,
2013-05-19 22:40:00,45.1,35.2,29.90,ESE,115,0.0,0.0,68,0.00,,,0.09,Wunderground v.1.15,2013-05-20 04:40:00,
2013-05-19 22:45:00,45.2,35.3,29.91,ESE,115,0.0,0.0,68,0.00,,,0.09,Wunderground v.1.15,2013-05-20 04:45:00,
2013-05-19 22:50:00,45.3,35.7,29.92,ESE,115,0.0,0.0,69,0.00,,,0.09,Wunderground v.1.15,2013-05-20 04:50:00,
2013-05-19 22:55:00,45.3,36.1,29.92,ESE,115,0.0,0.0,70,0.00,,,0.09,Wunderground v.1.15,2013-05-20 04:55:00,
2013-05-19 23:00:00,45.1,36.3,29.91,ESE,115,0.0,0.0,71,0.00,,,0.09,Wunderground v.1.15,2013-05-20 05:00:00,
2013-05-19 23:05:00,45.0,36.5,29.91,ESE,115,0.0,6.0,72,0.00,,,0.09,Wunderground v.1.15,2013-05-20 05:05:00,
2013-05-19 23:10:00,44.9,36.4,29.91,ESE,115,0.0,0.0,72,0.00,,,0.09,Wunderground v.1.15,2013-05-20 05:10:00,
2013-05-19 23:15:00,44.6,37.5,29.90,ESE,115,0.0,1.0,76,0.00,,,0.09,Wunderground v.1.15,2013-05-20 05:15:00,
2013-05-19 23:20:00,44.2,35.7,29.91,ESE,115,0.0,2.0,72,0.00,,,0.09,Wunderground v.1.15,2013-05-20 05:20:00,
2013-05-19 23:30:00,43.9,35.5,29.90,ESE,115,1.0,2.0,72,0.00,,,0.09,Wunderground v.1.15,2013-05-20 05:30:00,
2013-05-19 23:35:00,43.7,35.6,29.90,ESE,115,1.0,2.0,73,0.00,,,0.09,Wunderground v.1.15,2013-05-20 05:35:00,
2013-05-19 23:40:00,43.5,35.8,29.91,ESE,115,1.0,1.0,74,0.00,,,0.09,Wunderground v.1.15,2013-05-20 05:40:00,
2013-05-19 23:45:00,43.4,35.3,29.90,ESE,115,0.0,1.0,73,0.00,,,0.09,Wunderground v.1.15,2013-05-20 05:45:00,
2013-05-19 23:50:00,43.2,35.1,29.90,ESE,115,0.0,2.0,73,0.00,,,0.09,Wunderground v.1.15,2013-05-20 05:50:00,
2013-05-19 23:55:00,43.1,35.0,29.90,ESE,115,0.0,2.0,73,0.00,,,0.09,Wunderground v.1.15,2013-05-20 05:55:00,